Weather History for George, South Africa

Change the Weather History Date:

Wednesday, February 5, 2014

  Actual Average Record
Temperature  
Mean Temperature 70 °F -  
Max Temperature 76 °F 74 °F 87 °F (2001)
Min Temperature 64 °F 59 °F 51 °F (2001)
Cooling Degree Days 5    
Growing Degree Days 20 (Base 50)    
Moisture  
Dew Point 61 °F    
Average Humidity 76    
Maximum Humidity 94    
Minimum Humidity 44    
Precipitation  
Precipitation 0.02 in - - ()
Sea Level Pressure  
Sea Level Pressure 29.85 in    
Wind  
Wind Speed 7 mph ()    
Max Wind Speed 12 mph    
Max Gust Speed -    
Visibility 7.8 miles    
Events      
Averages and records for this station are not official NWS values.
T = Trace of Precipitation, MM = Missing Value Source: Averaged Metar Reports

Daily Weather History Graph

Daily Weather History Graph

Search for Another Location

Airport:

Trip Planner

Search our weather history database for the weather conditions in past years. The results will help you decide how hot, cold, wet, or windy it might be!

Date:

Astronomy

Feb. 05, 2014 Rise Set
Actual Time 5:55 AM SAST 7:32 PM SAST
Civil Twilight 5:28 AM SAST 7:59 PM SAST
Nautical Twilight 4:56 AM SAST 8:31 PM SAST
Astronomical Twilight 4:22 AM SAST 9:05 PM SAST
Moon 11:52 AM SAST (2/5) 11:04 PM SAST (2/5)
Length of Visible Light 14h 30m
Length of Day
13h 37m
Waxing Crescent, 36% of the Moon is Illuminated
Feb 5
Waxing Crescent
Feb 6
First Quarter
Feb 15
Full
Feb 22
Last Quarter
Mar 1
New

Hourly Weather History & Observations

Time (SAST) Temp. Dew Point Humidity Pressure Visibility Wind Dir Wind Speed Gust Speed Precip Events Conditions
12:00 AM 68.0 °F 64.4 °F 88% 29.83 in 6.2 mi West 9.2 mph - N/A   Scattered Clouds
1:00 AM 66.2 °F 62.6 °F 88% 29.83 in 6.2 mi West 8.1 mph - N/A   Partly Cloudy
2:00 AM 66 °F 63 °F 85% 29.81 in 6 mi NW 4.6 mph - -  
2:00 AM 66.2 °F 62.6 °F 88% 29.80 in 6.2 mi NW 4.6 mph - N/A   Partly Cloudy
3:00 AM 66.2 °F 62.6 °F 88% 29.80 in 6.2 mi West 4.6 mph - N/A   Mostly Cloudy
4:00 AM 66.2 °F 62.6 °F 88% 29.80 in 6.2 mi WSW 4.6 mph - N/A   Overcast
5:00 AM 66 °F 62 °F 85% 29.83 in 12 mi WSW 6.9 mph - -   Overcast
5:00 AM 66.2 °F 62.6 °F 88% 29.80 in 6.2 mi WSW 6.9 mph - N/A   Mostly Cloudy
6:00 AM 66.2 °F 62.6 °F 88% 29.83 in 6.2 mi West 5.8 mph - N/A   Mostly Cloudy
7:00 AM 66.2 °F 60.8 °F 83% 29.83 in 6.2 mi NW 6.9 mph - N/A   Mostly Cloudy
8:00 AM 67 °F 62 °F 81% 29.87 in 12 mi West 5.8 mph - -   Mostly Cloudy
8:00 AM 66.2 °F 62.6 °F 88% 29.86 in 6.2 mi West 5.8 mph - N/A   Mostly Cloudy
9:00 AM 68.0 °F 60.8 °F 78% 29.86 in 6.2 mi SW 11.5 mph - N/A   Mostly Cloudy
10:00 AM 69.8 °F 59.0 °F 68% 29.86 in 6.2 mi SW 8.1 mph - N/A   Mostly Cloudy
11:00 AM 70 °F 58 °F 57% 29.88 in 12 mi SSW 8.1 mph - -   Mostly Cloudy
11:00 AM 69.8 °F 59.0 °F 68% 29.86 in 6.2 mi SSW 8.1 mph - N/A   Scattered Clouds
12:00 PM 71.6 °F 59.0 °F 64% 29.86 in 6.2 mi SSE 5.8 mph - N/A   Mostly Cloudy
1:00 PM 73.4 °F 57.2 °F 57% 29.86 in 6.2 mi South 8.1 mph - N/A   Scattered Clouds
2:00 PM 74 °F 56 °F 44% 29.84 in 19 mi SE 8.1 mph - -   Scattered Clouds
2:00 PM 73.4 °F 55.4 °F 53% 29.86 in 6.2 mi SSE 6.9 mph - N/A   Partly Cloudy
3:00 PM 77.0 °F 57.2 °F 50% 29.83 in 6.2 mi Variable 2.3 mph - N/A   Partly Cloudy
4:00 PM 73.4 °F 59.0 °F 61% 29.86 in 6.2 mi South 10.4 mph - N/A   Scattered Clouds
5:00 PM 73 °F 58 °F 50% 29.84 in 19 mi SSW 6.9 mph - -   Scattered Clouds
5:00 PM 73.4 °F 59.0 °F 61% 29.86 in 6.2 mi SSW 6.9 mph - N/A   Partly Cloudy
6:00 PM 71.6 °F 60.8 °F 69% 29.86 in 6.2 mi SSW 6.9 mph - N/A   Scattered Clouds
7:00 PM 68.0 °F 62.6 °F 83% 29.86 in 6.2 mi SSW 11.5 mph - N/A   Mostly Cloudy
8:00 PM 66 °F 63 °F 86% 29.90 in 12 mi South 9.2 mph - -   Mostly Cloudy
8:00 PM 66.2 °F 62.6 °F 88% 29.89 in 6.2 mi South 9.2 mph - N/A   Mostly Cloudy
9:00 PM 64.4 °F 62.6 °F 94% 29.92 in 6.2 mi SSW 10.4 mph - N/A   Overcast
10:00 PM 64.4 °F 62.6 °F 94% 29.92 in 6.2 mi South 10.4 mph - N/A   Overcast
11:00 PM 64.4 °F 62.6 °F 94% 29.92 in 6.2 mi South 10.4 mph - N/A   Overcast